Smyrna, TN

3:17 AM CDT on May 28, 2018 (GMT -0500)
Smyrna

Weather History for KMQY - December, 2013

Change the Weather History Date:

Friday, December 6, 2013

  Actual Average Record
Temperature  
Mean Temperature 34 °F -  
Max Temperature 37 °F 50 °F 73 °F (1998)
Min Temperature 31 °F 37 °F 19 °F (2010)
Degree Days  
Heating Degree Days 31    
Moisture  
Dew Point 35 °F    
Average Humidity 98    
Maximum Humidity 100    
Minimum Humidity 92    
Precipitation  
Precipitation 2.08 in - - ()
Sea Level Pressure  
Sea Level Pressure 30.15 in    
Wind  
Wind Speed 12 mph (North)    
Max Wind Speed 17 mph    
Max Gust Speed 23 mph    
Visibility 4 miles    
Events Rain , Thunderstorm    
Averages and records for this station are not official NWS values.
T = Trace of Precipitation, MM = Missing Value Source: NWS Daily Summary

Daily Weather History Graph

Daily Weather History Graph

Search for Another Location

Airport or City:

Astronomy

Dec. 06, 2013 Rise Set
Actual Time 6:42 AM CST 4:31 PM CST
Civil Twilight 6:14 AM CST 5:00 PM CST
Nautical Twilight 5:42 AM CST 5:31 PM CST
Astronomical Twilight 5:11 AM CST 6:02 PM CST
Moon 9:52 AM CST (12/6) 8:57 PM CST (12/6)
Length of Visible Light 10h 45m
Length of Day
9h 48m
Waxing Crescent, 19% of the Moon is Illuminated
Dec 6
Waxing Crescent
Dec 9
First Quarter
Dec 17
Full
Dec 25
Last Quarter
Jan 1
New

Hourly Weather History & Observations

Time (CST) Temp. Windchill Dew Point Humidity Pressure Visibility Wind Dir Wind Speed Gust Speed Precip Events Conditions
12:56 AM 36.9 °F 29.1 °F 36.0 °F 97% 30.12 in 10.0 mi North 11.5 mph - 0.03 in   Overcast
1:56 AM 36.0 °F 27.5 °F 36.0 °F 100% 30.12 in 3.0 mi North 12.7 mph - 0.00 in Rain Light Rain
2:06 AM 35.6 °F 26.6 °F 35.6 °F 100% 30.08 in 1.8 mi North 13.8 mph - 0.08 in Rain Heavy Rain
2:21 AM 35.6 °F 28.6 °F 35.6 °F 100% 30.10 in 3.0 mi North 9.2 mph - 0.15 in Rain Rain
2:29 AM 35.6 °F 26.2 °F 35.6 °F 100% 30.10 in 1.8 mi North 15.0 mph - 0.25 in Rain Heavy Rain
2:32 AM 35.6 °F 27.1 °F 35.6 °F 100% 30.09 in 1.2 mi North 12.7 mph - 0.31 in Rain Heavy Rain
2:44 AM 35.6 °F 27.5 °F 35.6 °F 100% 30.09 in 1.5 mi North 11.5 mph - 0.41 in Rain Heavy Rain
2:56 AM 36.0 °F 27.1 °F 36.0 °F 100% 30.13 in 3.0 mi North 13.8 mph - 0.44 in Rain Heavy Rain
3:05 AM 35.6 °F 27.1 °F 35.6 °F 100% 30.11 in 3.0 mi North 12.7 mph - 0.03 in Rain Heavy Rain
3:12 AM 35.6 °F 29.2 °F 35.6 °F 100% 30.10 in 2.5 mi NNE 8.1 mph - 0.07 in Rain Heavy Rain
3:40 AM 35.6 °F 27.1 °F 35.6 °F 100% 30.08 in 1.8 mi North 12.7 mph - 0.23 in Rain Heavy Rain
3:46 AM 35.6 °F 30.7 °F 35.6 °F 100% 30.14 in 2.0 mi NNW 5.8 mph - 0.24 in Rain Heavy Rain
3:56 AM 36.0 °F 28.5 °F 36.0 °F 100% 30.14 in 3.0 mi North 10.4 mph - 0.27 in Rain Heavy Rain
4:10 AM 37.4 °F 29.8 °F 35.6 °F 93% 30.07 in 2.0 mi NNE 11.5 mph - 0.07 in Rain Heavy Rain
4:18 AM 37.4 °F 30.8 °F 35.6 °F 93% 30.08 in 3.0 mi NE 9.2 mph - 0.08 in Rain Light Rain
4:35 AM 37.4 °F 32.1 °F 35.6 °F 93% 30.09 in 9.0 mi NE 6.9 mph - 0.09 in Rain Light Rain
4:56 AM 36.9 °F 31.4 °F 36.0 °F 97% 30.15 in 2.0 mi North 6.9 mph - 0.15 in Rain Heavy Rain
5:03 AM 37.4 °F 32.1 °F 37.4 °F 100% 30.10 in 2.5 mi NNE 6.9 mph - 0.01 in Rain Rain
5:06 AM 37.4 °F 31.4 °F 37.4 °F 100% 30.09 in 3.0 mi North 8.1 mph - 0.02 in Rain Heavy Rain
5:56 AM 36.9 °F 30.1 °F 36.9 °F 100% 30.11 in 10.0 mi NE 9.2 mph - 0.03 in Rain Light Rain
6:56 AM 36.9 °F 29.6 °F 36.9 °F 100% 30.15 in 2.0 mi North 10.4 mph - 0.05 in Rain Heavy Rain
7:56 AM 36.9 °F 29.6 °F 36.0 °F 97% 30.15 in 2.0 mi North 10.4 mph - 0.09 in Rain Heavy Rain
8:56 AM 36.9 °F 28.2 °F 36.0 °F 97% 30.14 in 3.0 mi North 13.8 mph - 0.12 in Rain Light Rain
9:37 AM 35.6 °F 27.1 °F 35.6 °F 100% 30.14 in 3.0 mi North 12.7 mph - 0.05 in Rain Rain
9:39 AM 35.6 °F 27.1 °F 35.6 °F 100% 30.15 in 2.5 mi North 12.7 mph - 0.06 in Rain Heavy Rain
9:46 AM 35.6 °F 28.6 °F 35.6 °F 100% 30.15 in 1.2 mi North 9.2 mph - 0.07 in Rain Heavy Rain
9:56 AM 36.0 °F 27.5 °F 34.9 °F 96% 30.18 in 1.0 mi North 12.7 mph - 0.13 in Rain Heavy Rain
10:01 AM 37.4 °F 30.3 °F 35.6 °F 93% 30.13 in 1.5 mi North 10.4 mph - 0.00 in Rain Rain
10:04 AM 35.6 °F 27.1 °F 35.6 °F 100% 30.12 in 2.0 mi NNE 12.7 mph - 0.01 in Rain Rain
10:32 AM 35.6 °F 27.1 °F 35.6 °F 100% 30.12 in 4.0 mi North 12.7 mph - 0.01 in Rain Light Rain
10:37 AM 35.6 °F 27.5 °F 35.6 °F 100% 30.12 in 4.0 mi North 11.5 mph - 0.01 in Rain Rain
10:56 AM 36.0 °F 28.0 °F 34.9 °F 96% 30.17 in 3.0 mi North 11.5 mph - 0.02 in Rain Heavy Rain
10:59 AM 35.6 °F 27.5 °F 35.6 °F 100% 30.11 in 2.5 mi NNE 11.5 mph - 0.01 in Rain Light Rain
11:10 AM 35.6 °F 26.2 °F 35.6 °F 100% 30.12 in 3.0 mi North 15.0 mph - 0.01 in Rain Rain
11:16 AM 35.6 °F 26.2 °F 35.6 °F 100% 30.12 in 2.0 mi North 15.0 mph - 0.02 in Rain Heavy Rain
11:56 AM 34.9 °F 26.2 °F 34.9 °F 100% 30.13 in 2.5 mi NNE 12.7 mph - 0.14 in Rain Light Rain
12:56 PM 34.9 °F 26.6 °F 34.9 °F 100% 30.14 in 1.2 mi North 11.5 mph - 0.06 in Rain Light Rain
1:03 PM 35.6 °F 28.0 °F 35.6 °F 100% 30.10 in 1.2 mi North 10.4 mph - 0.01 in Rain Light Rain
1:09 PM 35.6 °F 27.5 °F 35.6 °F 100% 30.13 in 2.0 mi North 11.5 mph - 0.02 in Rain Light Rain
1:24 PM 35.6 °F 27.1 °F 33.8 °F 93% 30.11 in 1.2 mi North 12.7 mph - 0.08 in Rain Light Rain
1:28 PM 35.6 °F 27.1 °F 33.8 °F 93% 30.11 in 0.8 mi North 12.7 mph - 0.13 in Rain Light Rain
1:36 PM 35.6 °F 27.5 °F 33.8 °F 93% 30.13 in 1.2 mi North 11.5 mph - 0.15 in Rain Light Rain
1:43 PM 33.8 °F 23.5 °F 33.8 °F 100% 30.14 in 1.8 mi North 16.1 mph - 0.17 in Rain Light Rain
1:56 PM 34.0 °F 24.6 °F 32.9 °F 96% 30.21 in 1.2 mi North 13.8 mph - 0.23 in Rain , Thunderstorm Light Thunderstorms and Rain
2:02 PM 33.8 °F 25.8 °F 33.8 °F 100% 30.17 in 2.0 mi North 10.4 mph - 0.02 in Rain , Thunderstorm Light Thunderstorms and Rain
2:15 PM 33.8 °F 25.8 °F 33.8 °F 100% 30.14 in 1.8 mi North 10.4 mph - 0.06 in Rain , Thunderstorm Light Thunderstorms and Rain
2:22 PM 33.8 °F 24.3 °F 33.8 °F 100% 30.12 in 2.5 mi North 13.8 mph - 0.08 in Rain , Thunderstorm Light Thunderstorms and Rain
2:30 PM 33.8 °F 27.0 °F 33.8 °F 100% 30.14 in 2.5 mi NNE 8.1 mph - 0.09 in Rain Rain
2:44 PM 35.6 °F 27.5 °F 33.8 °F 93% 30.11 in 4.0 mi NNE 11.5 mph - 0.11 in Rain Rain
2:56 PM 34.9 °F 25.7 °F 34.0 °F 97% 30.14 in 4.0 mi NNE 13.8 mph - 0.12 in Rain Light Rain
3:06 PM 35.6 °F 28.6 °F 33.8 °F 93% 30.14 in 1.8 mi North 9.2 mph - 0.02 in Rain Heavy Rain
3:19 PM 33.8 °F 27.0 °F 33.8 °F 100% 30.16 in 2.5 mi North 8.1 mph - 0.06 in Rain Heavy Rain
3:36 PM 33.8 °F 24.3 °F 33.8 °F 100% 30.15 in 6.0 mi North 13.8 mph - 0.09 in Rain Light Rain
3:56 PM 34.0 °F 24.2 °F 32.9 °F 96% 30.20 in 3.0 mi North 15.0 mph - 0.12 in Rain Rain
4:56 PM 34.0 °F 26.0 °F 32.9 °F 96% 30.32 in 5.0 mi NNW 10.4 mph - 0.04 in Rain Rain
5:56 PM 34.0 °F 25.0 °F 32.0 °F 92% 30.26 in 5.0 mi NNE 12.7 mph - 0.04 in Rain Light Rain
6:56 PM 34.0 °F 28.8 °F 32.9 °F 96% 30.27 in 10.0 mi NE 5.8 mph - 0.00 in   Overcast
7:15 PM 33.8 °F 27.0 °F 33.8 °F 100% 30.22 in 10.0 mi NNE 8.1 mph - N/A   Overcast
7:56 PM 34.0 °F 24.6 °F 32.0 °F 92% 30.31 in 10.0 mi North 13.8 mph - N/A   Overcast
8:56 PM 34.0 °F 23.4 °F 32.0 °F 92% 30.35 in 10.0 mi North 17.3 mph - 0.00 in   Overcast
9:56 PM 32.0 °F 22.5 °F 30.0 °F 92% 30.38 in 10.0 mi North 12.7 mph 23.0 mph N/A   Overcast
10:56 PM 31.1 °F 21.4 °F 30.0 °F 96% 30.39 in 10.0 mi North 12.7 mph - N/A   Overcast
11:56 PM 31.1 °F 20.5 °F 29.1 °F 92% 30.41 in 10.0 mi North 15.0 mph - N/A   Overcast